Wind_Speed
28 27 27 27 26 25 26 28 29 30 31 32 33 33 34 35 36 37 39 39 39 38 37 36 36 37 36 38 39 41 42 43 43 44 45 47 48 50 51 52 52 51 49 49 48 48 47 47 46 45 44 44 44 45 45 46 45 45 44 44 44 44 45 44 43 43 43 44 45 45 44 42 41 40 40 39 38 37 36 35 33 31 30 29 28 27
29 30 29 28 27 26 26 28 28 29 29 29 30 31 32 33 34 34 35 36 37 37 37 37 36 36 36 37 38 39 40 41 42 43 44 45 47 49 50 51 51 50 49 49 49 49 49 48 46 44 43 42 42 43 44 45 45 45 45 45 45 45 45 45 44 43 44 44 45 45 43 43 42 41 40 39 38 36 36 35 33 32 30 29 28 27
28 28 29 29 28 27 27 28 28 28 29 29 30 31 31 31 31 31 31 32 34 35 35 34 34 34 35 35 36 37 38 39 40 42 43 44 46 47 48 49 50 50 49 49 50 50 50 49 47 45 43 42 41 42 43 44 45 45 45 45 45 45 46 45 45 44 44 45 45 44 43 43 42 41 39 38 37 36 35 34 33 32 30 29 28 27
27 26 28 28 28 28 28 27 27 28 29 29 30 30 31 30 30 29 30 31 32 33 32 31 31 31 32 33 34 35 37 38 39 41 42 43 45 46 47 48 50 50 50 50 50 50 50 49 48 46 44 43 42 41 42 43 44 44 45 45 45 46 46 46 45 45 46 45 44 42 42 43 42 41 39 38 37 36 35 34 33 32 30 29 28 27
27 26 27 28 28 29 30 29 27 26 26 27 28 29 29 30 30 30 32 33 33 33 32 31 30 30 31 32 34 36 37 38 39 40 42 43 44 45 46 47 48 50 51 51 50 50 50 49 48 46 45 44 42 42 42 43 44 44 44 45 45 45 46 46 47 47 47 45 43 42 42 42 42 41 40 39 39 37 36 35 33 32 30 29 28 27
28 27 28 27 27 28 30 29 27 26 25 27 27 27 28 29 29 30 30 31 31 30 30 30 31 33 34 34 35 37 38 39 40 41 42 43 44 44 45 45 46 47 49 50 50 50 50 48 47 46 45 44 43 42 43 43 44 45 45 44 44 45 45 46 47 48 47 44 42 42 42 43 43 42 41 40 39 38 37 35 34 32 30 29 28 27
27 28 28 27 27 28 29 29 28 27 25 25 24 24 26 26 26 27 28 28 28 28 30 31 33 34 35 35 36 37 38 38 39 40 41 42 42 43 43 44 44 45 46 48 49 49 49 48 47 46 45 45 44 43 43 44 45 45 46 45 45 45 45 46 47 47 46 44 43 43 44 45 44 44 43 41 39 38 37 35 34 32 30 29 28 27
23 26 27 26 27 28 28 29 29 28 26 24 23 23 24 25 25 26 27 28 29 29 30 31 31 32 32 33 34 34 34 35 35 36 37 38 39 40 41 42 43 43 44 45 46 47 47 46 46 45 45 45 45 44 44 44 45 46 46 47 47 47 46 46 45 45 45 44 45 46 46 46 46 45 43 41 39 37 36 35 33 32 31 29 28 28
21 23 26 26 26 25 25 28 29 28 27 26 24 22 22 24 26 28 29 29 29 29 28 28 28 28 29 31 31 32 32 33 33 34 35 36 38 39 40 40 41 42 42 43 43 44 44 45 45 45 44 45 45 45 44 44 45 46 47 48 48 48 47 46 45 45 46 46 47 47 48 47 46 45 43 42 40 38 36 35 34 33 31 30 29 28
25 25 26 27 27 25 22 23 26 27 26 26 25 25 24 24 24 24 25 25 25 25 26 26 25 25 27 28 29 30 31 32 34 35 36 38 39 40 40 40 40 40 40 41 41 41 42 43 44 44 44 44 45 45 45 45 45 46 47 48 49 49 48 46 45 45 46 47 48 48 48 47 46 44 43 42 40 38 37 36 35 33 32 30 29 27
25 26 25 26 27 26 24 23 24 26 26 25 25 26 25 24 22 18 15 16 19 22 23 23 23 23 24 25 26 26 27 29 31 33 35 37 38 39 40 40 40 41 41 41 41 40 40 41 41 42 43 44 44 45 45 45 45 46 47 48 49 49 48 47 47 47 47 48 48 48 47 47 46 44 43 41 40 39 37 36 35 33 32 30 29 27
20 22 22 23 24 25 25 27 28 28 26 23 18 16 18 20 21 20 17 13 16 21 23 24 24 24 24 25 25 25 25 26 28 30 31 33 34 35 36 37 38 40 41 40 40 40 40 40 39 40 41 42 43 44 45 45 45 46 47 48 49 49 48 48 48 48 48 48 48 48 47 46 46 44 43 41 39 38 36 34 33 32 31 29 28 27
20 20 21 21 21 22 22 24 25 24 22 18 12 9 11 16 20 22 22 20 21 24 26 26 28 29 30 29 26 25 25 25 27 28 29 30 32 33 33 34 35 37 38 38 38 39 39 38 38 38 38 40 41 43 45 46 46 46 47 48 49 49 49 49 48 48 49 49 48 48 46 45 44 43 42 40 38 37 35 34 32 31 30 28 27 26
16 18 16 14 15 17 19 19 16 13 14 16 16 17 19 21 23 23 23 22 24 27 26 24 25 28 29 28 26 25 24 25 26 27 27 29 32 33 33 33 34 35 35 34 34 36 38 36 36 36 37 38 40 42 45 46 47 48 47 48 48 49 49 49 49 49 49 49 48 47 46 45 43 42 41 39 37 36 35 33 32 30 29 27 26 25
12 13 11 10 10 13 17 18 16 14 18 22 24 24 25 25 26 25 21 18 20 24 23 22 22 24 26 25 24 23 23 23 23 24 25 27 31 33 33 32 33 33 33 31 32 34 36 34 33 33 35 36 38 41 44 46 48 49 49 49 49 49 49 49 49 49 49 48 48 47 46 45 43 42 41 39 37 36 35 33 32 30 29 28 26 25
14 12 10 11 11 14 19 21 20 20 24 27 28 26 24 23 24 24 21 18 19 20 16 10 9 14 20 24 24 22 21 21 21 21 22 24 28 31 31 30 29 30 30 29 31 33 34 33 33 33 33 35 37 40 42 45 47 48 49 49 49 49 49 49 49 49 49 48 47 46 45 44 43 42 42 40 38 36 34 33 31 30 29 28 27 26
16 12 10 10 10 14 22 24 24 24 26 26 26 26 24 22 21 22 21 20 17 13 8 7 7 8 9 16 23 23 18 17 18 19 20 22 25 28 29 28 27 27 29 29 30 32 33 33 32 32 32 33 35 38 40 42 44 46 47 47 48 49 50 50 50 49 48 47 45 44 42 41 40 40 40 39 38 36 35 33 32 30 29 28 27 26
17 15 12 10 11 15 21 23 23 23 24 23 24 24 24 24 23 22 20 19 15 10 7 6 7 7 8 8 15 21 16 15 16 17 18 20 23 26 26 26 27 27 28 28 30 32 34 34 34 34 34 34 35 36 38 40 42 43 45 46 47 48 49 49 48 47 45 44 42 40 38 37 36 36 36 36 35 35 34 33 31 30 29 27 27 26
18 19 16 13 14 19 22 23 22 21 20 21 22 23 24 26 26 26 25 24 21 15 11 10 8 7 7 6 13 20 17 15 16 16 14 17 21 24 23 24 25 26 27 28 30 32 34 35 37 37 37 37 37 36 37 39 40 42 44 45 46 47 47 46 44 43 41 39 38 36 35 34 34 33 33 33 33 32 32 31 30 29 27 27 26 26
19 21 21 21 21 21 22 24 25 24 22 22 23 24 24 25 25 24 23 22 21 19 17 11 8 8 8 13 19 22 19 17 16 15 12 14 19 22 22 21 22 23 25 28 30 31 33 34 36 37 37 37 37 37 38 38 39 41 44 44 45 44 43 42 41 39 38 37 36 35 34 33 32 32 31 31 31 30 30 29 28 27 27 26 26 25
22 24 26 25 23 21 21 24 27 28 27 27 26 25 23 22 20 19 19 19 20 20 17 9 9 13 17 18 22 24 21 17 14 12 10 11 15 18 20 21 21 22 24 26 29 30 31 32 34 36 36 36 36 36 37 37 38 40 43 41 40 39 39 38 38 37 37 36 35 34 34 33 32 31 31 30 29 29 28 28 27 27 26 26 25 25
24 26 29 30 28 26 25 28 31 32 30 28 26 23 22 21 18 19 22 22 22 21 19 16 20 26 27 26 29 30 27 19 15 13 9 7 9 14 18 19 20 21 22 24 27 28 28 30 32 34 35 35 35 34 34 34 35 36 37 35 35 35 35 36 36 36 35 35 35 34 34 33 32 31 30 29 28 28 28 27 26 26 25 25 25 25
27 29 30 30 30 30 31 31 31 31 30 27 25 23 25 25 24 24 25 25 25 25 27 29 31 33 32 31 33 33 31 26 22 18 10 6 8 14 19 18 18 19 21 22 23 24 25 27 29 31 33 32 31 30 30 30 30 30 31 32 33 33 34 34 34 34 34 34 33 33 32 32 31 30 29 29 28 28 27 27 26 25 25 25 24 24
30 31 31 31 30 30 30 30 30 30 30 29 28 28 27 28 29 29 31 30 30 30 32 32 30 29 30 30 30 30 30 28 25 19 11 6 11 18 19 16 16 17 20 21 20 20 22 24 26 28 28 27 26 25 25 25 26 28 30 31 32 33 33 33 33 32 32 32 32 31 31 30 30 29 29 28 28 27 27 26 25 25 24 24 24 24
31 31 30 30 30 30 30 30 31 32 32 32 31 31 31 31 32 33 32 31 29 29 27 24 20 18 20 23 24 25 27 25 22 19 13 6 7 11 16 15 15 15 16 16 16 16 18 19 21 22 22 21 20 20 21 24 26 29 30 31 32 32 32 32 32 31 31 31 30 30 29 29 29 28 28 28 27 26 26 25 25 24 24 24 24 23
33 32 31 31 32 34 36 38 39 39 39 38 37 36 34 33 32 30 29 28 26 24 19 14 11 10 11 13 14 18 23 21 20 20 17 9 5 7 13 13 15 14 12 9 9 10 12 13 14 14 15 16 17 18 21 24 27 29 30 30 30 30 30 30 30 30 30 30 29 29 28 28 28 27 27 27 26 25 25 24 24 24 24 23 23 23
30 29 30 32 34 36 37 38 40 41 42 41 40 38 36 34 30 25 22 23 22 17 11 9 10 10 8 7 8 14 23 19 17 20 21 14 7 3 6 9 12 11 7 4 4 6 7 8 10 11 14 15 16 18 21 24 26 28 28 29 29 29 29 29 29 29 29 29 28 28 27 27 27 27 26 25 25 25 24 24 24 23 23 23 22 22
26 28 30 32 34 35 36 37 38 38 38 38 38 38 36 33 25 16 12 16 17 13 8 9 10 10 10 9 11 17 25 19 16 19 21 16 7 2 2 6 10 9 7 5 4 3 3 5 8 12 15 16 17 19 21 23 24 25 26 27 27 28 28 28 28 28 28 27 27 27 27 26 26 25 25 24 24 24 23 23 23 23 23 22 21 21
29 31 33 33 33 33 33 33 34 34 34 34 34 33 32 27 19 14 15 19 18 15 11 11 11 11 10 9 12 17 21 19 18 19 19 13 5 2 3 7 9 9 8 5 4 3 2 2 7 11 14 15 17 19 20 22 22 23 24 25 26 26 26 26 26 26 26 26 26 26 26 25 25 24 24 24 23 23 23 23 23 23 22 21 21 21
33 33 32 31 30 30 30 30 31 31 31 30 29 28 26 23 20 20 23 24 21 16 11 11 11 10 10 9 10 10 11 14 16 17 18 11 5 2 5 7 9 10 9 5 2 2 2 1 5 10 12 14 16 18 20 21 21 22 23 23 24 24 24 25 25 25 25 25 25 25 25 24 24 23 23 23 23 23 23 23 23 22 21 21 21 21
33 31 30 30 29 28 28 27 28 28 28 27 27 25 24 24 24 24 24 23 21 18 14 11 11 10 10 9 8 7 5 8 10 14 17 12 8 7 9 7 8 11 12 7 4 1 0 1 4 8 12 13 15 17 18 19 21 22 23 23 23 22 22 23 23 23 23 23 24 24 23 23 23 23 23 23 23 23 23 23 23 22 21 21 21 21
31 30 29 28 28 28 27 26 25 26 26 26 25 25 25 24 24 24 24 24 22 20 18 15 14 12 11 9 9 8 7 9 9 11 16 13 10 11 13 10 9 11 13 9 5 2 3 2 3 6 10 12 13 14 16 18 20 22 23 23 22 22 22 21 22 22 22 22 22 22 22 22 22 22 22 23 23 23 23 23 22 21 21 21 21 21
30 29 29 28 28 28 26 26 25 25 25 25 24 24 23 24 25 26 26 26 25 22 20 18 16 14 12 11 11 11 13 16 14 12 15 14 10 9 12 12 11 10 11 8 3 2 2 3 4 5 8 10 11 12 14 16 19 21 23 23 22 22 21 21 22 22 22 21 21 21 21 21 21 22 22 22 23 23 23 23 22 21 21 22 22 21
29 29 29 28 27 26 26 26 25 25 24 23 23 23 23 25 27 28 28 28 27 25 22 20 18 16 13 10 10 12 18 20 18 14 15 15 11 8 11 11 11 10 8 5 2 2 2 3 4 4 5 8 10 10 12 14 17 20 23 23 23 22 22 22 23 22 22 22 21 21 21 21 21 22 22 22 23 23 23 23 22 21 21 22 22 22
28 28 27 26 25 25 25 25 25 24 23 22 22 23 25 27 29 29 29 29 28 27 25 24 23 21 18 13 10 12 17 20 20 16 16 18 15 11 10 11 13 11 7 4 3 2 2 3 4 5 4 5 6 8 10 13 16 19 22 23 23 23 23 24 24 24 23 23 22 22 22 22 22 22 22 22 23 23 23 23 22 22 21 21 22 22
26 26 25 25 24 24 24 25 25 23 22 22 23 25 27 29 30 30 29 29 28 26 25 25 25 25 24 21 18 17 20 25 24 21 19 20 20 15 10 11 14 14 9 5 4 4 3 3 5 7 7 5 4 5 8 12 16 18 20 21 21 22 22 23 24 24 23 23 22 22 22 23 23 23 23 22 23 23 23 23 23 22 21 21 21 22
23 23 24 24 23 23 24 24 24 23 22 22 24 26 28 30 31 31 30 29 27 25 23 22 22 22 23 23 23 24 26 29 28 25 22 22 22 18 13 12 15 17 13 8 5 5 5 5 5 6 5 4 3 3 6 11 15 16 17 18 19 20 20 21 22 22 22 21 21 20 20 21 22 23 23 22 22 22 22 23 23 23 22 21 21 22
22 22 23 24 23 23 23 24 24 23 23 24 25 28 31 32 32 32 30 28 25 22 20 19 18 17 17 17 18 20 22 23 23 21 21 22 22 19 14 12 14 16 15 13 12 9 6 6 6 6 4 3 3 6 10 12 13 13 14 16 17 18 18 18 19 20 20 20 19 18 18 19 20 22 22 22 22 22 22 22 23 23 23 22 21 21
20 21 23 24 24 23 23 24 24 25 26 26 28 30 32 32 31 29 27 24 21 18 16 14 13 12 10 9 9 10 10 10 11 14 16 18 18 16 13 11 11 13 14 14 14 13 9 6 6 6 5 4 4 7 11 13 13 13 14 15 14 14 15 16 16 17 18 18 18 17 17 18 19 21 22 22 23 23 22 22 22 22 22 21 21 20
21 22 23 24 25 24 24 25 26 27 28 30 32 32 31 29 26 24 23 21 18 15 13 11 9 8 7 6 5 4 2 2 3 6 9 11 12 12 11 11 12 12 12 12 13 12 10 6 5 5 6 5 5 5 7 11 13 14 15 11 8 8 13 14 15 16 16 17 18 18 18 18 19 20 21 22 23 23 23 22 22 21 21 20 19 18
22 22 24 26 27 27 26 26 27 29 30 31 30 29 26 24 22 20 20 19 17 15 12 10 9 7 6 6 6 6 6 5 4 3 3 5 7 8 10 12 13 13 13 13 11 11 10 9 7 6 7 7 7 8 9 10 13 15 14 9 7 10 14 16 16 16 17 18 19 20 20 20 20 20 21 21 22 22 23 23 22 22 21 21 20 19
23 24 25 27 27 27 27 27 28 29 29 27 25 23 21 20 19 17 16 15 15 14 13 11 10 9 8 8 9 10 10 10 9 7 7 7 8 9 11 12 14 15 15 13 12 11 11 11 10 10 10 10 9 6 6 10 13 14 14 12 13 13 13 15 17 18 19 20 20 21 21 21 21 20 20 20 20 21 21 21 21 21 21 21 21 21
25 25 27 27 27 27 26 26 26 26 25 23 22 20 20 19 18 16 14 13 12 11 11 10 9 8 8 8 9 11 13 12 12 11 10 9 10 11 12 13 14 15 15 14 12 11 11 11 11 12 13 15 13 9 6 8 11 12 14 15 16 12 6 9 15 18 19 20 20 21 21 21 21 21 20 20 19 19 19 19 20 20 21 21 22 22
26 27 27 26 26 25 25 23 23 23 22 21 20 20 19 18 17 15 13 12 11 10 9 8 7 7 6 6 7 9 12 14 14 13 13 12 11 12 14 14 13 13 14 14 12 11 11 11 10 11 13 15 15 12 9 9 10 12 14 16 16 12 7 10 16 20 18 18 19 19 19 20 20 20 19 18 18 18 18 18 19 19 20 21 22 22
27 27 26 26 25 24 23 22 22 23 22 22 20 19 18 17 15 13 12 10 10 9 8 7 6 4 3 3 4 6 9 12 14 15 15 14 13 13 13 13 13 13 13 14 14 13 11 10 10 12 14 15 14 13 11 10 11 12 12 14 14 14 15 17 20 20 19 18 17 17 17 17 18 17 17 16 16 16 17 18 18 19 20 21 22 22
25 25 25 25 24 23 22 23 23 23 22 21 20 18 16 15 14 12 10 9 9 8 7 6 4 2 1 2 3 4 5 8 11 14 15 16 15 14 13 12 12 12 13 14 15 16 16 15 14 14 14 13 12 11 12 13 13 12 12 14 15 16 15 15 17 18 18 18 17 16 16 16 16 16 15 15 15 15 16 17 17 18 19 20 21 22
24 24 24 24 23 22 22 22 22 22 21 19 17 16 15 14 12 11 9 8 7 6 5 4 3 2 1 2 2 2 2 4 6 9 12 14 16 16 15 15 14 14 14 15 16 17 18 18 17 16 14 10 7 5 9 13 14 14 14 16 17 17 16 15 15 15 15 16 16 16 16 16 15 15 15 15 15 14 14 15 16 17 18 18 19 20
23 23 23 23 22 21 21 21 21 20 20 19 17 15 14 12 11 9 8 7 6 5 3 3 3 2 2 2 3 3 3 3 4 6 9 11 13 14 15 16 16 16 16 17 17 17 17 15 14 13 13 11 6 3 6 11 14 15 15 16 17 16 14 15 14 14 13 13 14 15 15 15 15 15 15 14 13 12 12 13 15 16 16 16 17 17
23 22 22 22 20 19 20 20 21 20 18 17 15 13 12 11 9 7 7 6 5 4 3 2 2 1 1 2 3 4 5 5 5 6 7 8 10 11 12 13 15 16 16 17 17 17 16 15 14 12 10 11 12 11 11 12 14 15 15 14 13 12 12 12 12 12 12 12 12 12 13 13 14 14 14 13 11 10 10 11 13 14 15 15 15 16
23 22 21 20 19 19 19 20 20 19 18 15 13 11 10 9 8 6 5 4 3 3 2 2 2 1 1 2 3 4 4 4 5 5 6 7 7 8 8 9 10 11 11 11 11 12 12 12 13 14 14 10 11 13 14 14 14 14 12 11 10 10 10 10 10 10 10 10 10 10 10 10 10 11 11 11 9 8 8 9 10 12 13 13 14 14
23 22 21 20 19 19 19 20 20 19 17 15 12 10 9 7 6 5 4 3 2 2 2 2 2 2 1 2 3 4 4 4 4 5 6 6 7 6 6 6 6 5 4 3 3 3 2 3 5 8 10 11 9 7 9 13 14 12 9 9 9 8 8 8 8 8 8 9 9 9 9 9 9 9 9 9 7 5 4 5 7 9 11 11 12 12
Wind_Direction
293 293 292 291 289 287 284 283 282 281 279 278 276 275 275 274 273 273 273 272 271 270 269 268 268 267 266 266 266 266 267 267 266 265 264 263 262 262 262 261 261 260 260 261 261 260 258 255 253 251 249 248 247 246 246 244 243 241 239 238 237 236 235 234 232 230 228 226 224 222 221 221 219 215 208 206 204 203 204 205 204 204 204 206 207 207
294 294 293 291 289 287 285 285 283 280 277 277 276 276 275 274 273 272 271 271 270 269 268 267 266 266 265 265 265 265 266 266 266 266 265 264 264 263 262 261 260 260 260 261 262 262 261 258 255 252 249 248 247 247 246 245 244 242 240 238 237 236 234 233 231 230 228 225 224 224 223 224 221 215 208 204 203 202 203 204 203 203 203 205 205 206
296 295 293 293 291 288 286 286 284 281 279 278 277 276 274 272 271 270 270 270 270 268 266 264 263 264 264 265 265 266 266 267 267 267 266 265 264 263 262 261 260 259 259 260 261 261 261 260 257 253 249 247 246 246 246 246 245 243 241 239 237 235 234 232 230 228 226 225 225 225 225 224 219 212 206 203 201 201 201 201 202 202 202 204 205 205
296 295 294 294 293 290 288 287 286 283 282 280 278 276 274 272 270 269 270 270 269 268 267 266 264 264 264 265 265 266 267 269 270 269 268 267 265 263 262 260 260 259 259 259 259 259 259 259 257 254 250 247 246 245 245 245 245 243 242 240 238 235 233 231 229 227 226 226 227 228 226 220 213 207 203 201 200 200 199 199 200 201 202 204 204 204
294 294 294 295 294 292 291 289 288 285 283 281 280 278 277 275 273 271 271 269 267 266 268 270 269 266 264 264 264 266 267 269 271 271 270 268 266 264 262 261 260 260 259 258 258 257 258 258 257 254 251 248 246 245 244 244 244 243 241 240 238 235 233 230 229 228 228 228 229 228 222 213 207 203 201 201 200 199 199 199 200 201 203 203 203 203
292 292 293 293 292 291 292 290 288 286 285 283 281 279 277 275 273 271 270 267 265 265 266 267 267 265 263 262 262 264 266 268 270 270 269 268 267 265 263 262 261 260 259 258 257 256 256 256 256 255 252 249 247 246 244 244 243 241 240 238 236 234 232 230 229 228 228 227 225 221 213 206 202 201 201 201 200 200 200 200 200 201 202 202 202 203
289 290 291 291 290 290 290 289 288 286 285 284 282 280 278 275 273 271 271 269 267 266 266 265 264 262 261 260 260 262 264 266 268 269 269 268 267 266 264 263 261 260 259 258 256 255 254 255 256 255 253 251 249 247 245 243 242 240 238 236 235 233 231 229 228 227 226 223 218 212 206 202 201 202 201 201 200 200 199 200 200 200 200 200 200 201
293 294 294 292 291 291 290 288 287 286 284 283 283 283 281 278 276 274 273 271 269 267 266 265 263 261 258 258 259 260 262 264 266 267 268 268 267 266 265 263 261 260 259 257 256 255 254 254 255 255 253 251 249 247 245 243 241 239 237 235 233 232 231 230 228 227 225 220 213 206 203 202 203 203 202 201 200 199 198 199 199 198 198 197 198 199
302 301 299 297 295 294 292 290 288 286 284 284 283 282 281 280 280 279 277 274 271 269 271 270 268 264 260 258 258 258 260 261 263 264 266 267 267 267 266 264 262 260 259 257 256 255 254 253 254 254 253 250 248 246 244 242 240 238 236 234 232 231 231 231 229 228 225 216 209 204 203 203 203 202 202 200 199 198 198 199 198 196 195 195 196 198
301 300 299 298 297 296 294 293 292 292 291 288 285 282 281 280 281 282 281 280 278 278 280 280 279 274 269 263 260 258 258 260 262 263 264 265 266 266 265 264 262 260 259 258 257 256 255 254 254 253 251 248 246 245 244 242 240 238 235 233 231 230 230 230 229 226 221 212 207 204 204 203 202 201 201 200 198 198 198 199 197 194 193 193 194 196
297 296 296 296 296 296 295 295 297 299 298 295 290 284 280 277 279 283 286 285 286 288 289 287 284 281 278 274 269 263 260 260 261 263 265 265 265 265 265 263 262 261 259 258 257 257 256 255 254 252 249 246 244 243 243 242 240 237 234 232 230 229 228 228 227 223 218 210 206 204 204 203 202 200 199 199 199 199 198 197 194 192 190 191 192 194
294 294 294 294 294 295 294 294 295 296 296 293 290 286 280 276 279 285 289 288 289 291 291 288 285 282 279 277 274 270 266 262 261 263 264 265 266 265 263 262 261 260 259 258 257 256 255 255 253 250 248 245 243 243 242 241 240 237 234 232 230 228 227 227 225 220 213 208 205 204 203 201 201 200 198 197 197 197 195 193 191 189 188 189 190 193
293 293 294 293 292 292 292 292 293 293 291 289 288 287 288 289 291 292 292 289 288 289 288 286 285 283 281 277 272 268 265 262 261 262 261 262 263 264 261 260 259 258 258 257 256 255 255 254 252 250 247 245 244 244 243 242 240 238 235 232 230 228 226 227 223 217 211 207 204 203 201 200 198 197 196 195 194 193 191 189 188 186 187 187 189 192
295 296 295 293 292 292 293 294 295 295 294 294 296 297 297 298 298 296 293 289 287 286 284 280 279 280 280 277 271 265 262 260 260 260 259 258 258 259 257 256 256 256 255 254 253 254 253 252 251 250 249 248 246 245 244 243 241 239 237 234 231 227 225 224 220 214 210 206 203 201 199 198 196 194 192 191 189 188 187 186 185 184 185 187 188 191
299 299 296 294 294 295 297 299 300 299 299 299 300 300 300 297 294 291 288 285 284 284 282 278 276 277 279 277 273 267 261 257 256 256 256 256 256 256 254 253 253 253 253 251 251 252 252 250 249 249 250 250 249 248 246 244 242 240 237 234 230 226 223 220 217 213 208 205 202 199 197 195 193 192 192 189 187 185 184 183 183 183 184 186 188 190
299 298 295 295 295 295 296 297 297 297 296 297 297 297 296 293 291 289 288 286 286 287 286 284 281 282 283 284 281 274 262 253 250 251 254 256 257 256 254 249 249 250 250 249 249 250 250 249 248 248 250 251 251 250 247 244 242 239 236 232 228 224 221 218 215 211 207 203 200 197 195 193 191 191 191 187 184 182 180 180 180 181 183 186 188 191
297 295 292 292 291 292 294 294 293 293 294 294 294 293 292 292 293 294 293 294 294 294 291 289 287 288 289 290 288 282 265 249 244 247 252 256 259 258 253 246 243 246 248 247 247 247 248 247 246 247 249 251 252 251 248 244 241 238 235 231 226 222 220 217 213 209 204 201 197 195 192 190 188 188 187 183 180 178 177 177 179 181 184 186 189 192
293 292 289 287 287 290 292 293 293 293 294 294 295 296 298 299 301 302 301 299 296 291 285 281 281 283 287 288 289 285 272 248 240 245 251 255 259 258 253 244 241 243 247 247 247 247 246 246 246 247 249 251 252 251 248 245 241 238 234 230 226 222 218 214 209 205 200 196 193 190 188 186 184 183 181 178 175 174 174 176 179 182 185 187 189 192
289 288 287 286 288 289 290 290 291 293 294 296 299 301 302 302 301 299 295 292 289 285 283 282 280 277 277 274 285 287 282 258 245 246 253 258 260 258 251 240 237 239 245 246 247 246 246 246 247 249 251 253 253 252 249 245 242 238 235 230 225 220 214 208 203 198 194 190 187 185 182 181 180 178 176 173 172 172 175 177 180 182 184 186 188 191
285 284 283 284 285 286 287 287 288 289 290 294 296 297 296 295 294 291 288 288 287 286 286 283 278 277 277 280 286 289 288 273 259 252 255 261 263 260 250 236 231 236 243 246 247 247 246 247 248 250 251 253 253 251 249 246 243 239 235 230 223 216 208 201 196 191 187 184 181 179 178 178 177 176 173 172 173 175 177 178 180 181 182 184 187 191
281 280 280 280 281 282 284 284 285 286 287 288 289 289 288 289 290 290 292 294 296 296 296 293 287 287 290 290 291 293 293 280 262 253 262 266 266 261 251 235 229 233 242 246 248 248 246 247 248 249 251 252 252 250 248 246 243 240 234 226 216 207 198 192 188 184 181 178 176 175 175 176 175 173 172 174 176 177 178 178 179 179 181 184 188 191
275 277 278 278 277 277 278 280 282 283 284 283 283 283 285 288 290 292 294 296 296 296 294 291 289 289 290 290 289 290 290 281 266 258 269 272 269 263 254 236 228 232 240 245 247 247 245 245 247 249 250 250 250 249 247 245 242 236 227 215 203 194 188 184 180 178 176 174 173 173 174 174 173 172 173 175 177 177 178 178 178 179 182 185 188 192
273 274 276 276 275 275 276 277 279 281 281 280 278 278 281 283 285 286 288 288 288 287 286 285 285 285 283 282 281 281 280 275 266 261 261 266 270 268 261 237 226 231 239 243 245 245 244 244 245 246 247 247 246 245 243 240 234 224 210 197 188 182 179 176 175 173 172 171 171 172 173 172 172 173 174 176 177 177 177 178 178 180 183 187 190 193
275 274 275 275 275 274 275 276 279 281 283 282 281 280 279 279 280 281 282 283 282 282 283 283 283 281 280 278 277 276 274 270 261 252 246 253 270 269 260 234 221 229 240 243 242 241 241 241 242 243 242 242 240 237 233 226 214 200 189 182 177 174 172 171 170 170 170 170 171 171 171 170 171 173 175 176 176 177 178 178 180 182 185 188 191 193
277 275 275 276 277 278 280 281 283 285 286 286 285 283 282 282 282 281 281 279 278 278 279 278 277 276 278 278 278 278 277 270 255 240 237 249 267 264 256 228 216 225 239 241 238 234 233 235 237 237 235 232 229 223 215 202 190 181 176 172 170 169 169 168 169 169 169 169 170 169 169 170 172 174 175 176 176 177 178 179 181 184 187 190 192 194
281 280 281 284 287 289 290 290 290 289 289 288 287 286 286 286 285 283 281 278 276 275 274 270 266 267 274 278 278 280 282 273 252 235 232 242 260 264 259 225 212 217 229 231 224 219 219 221 223 222 215 211 209 204 194 183 176 172 169 168 167 167 167 168 169 169 169 169 168 168 168 171 174 175 175 176 176 178 179 181 183 185 188 190 192 194
291 293 296 297 298 297 296 295 293 292 290 288 287 286 286 286 284 282 278 276 276 275 272 271 275 280 282 281 279 282 284 276 252 233 230 236 250 277 255 215 203 201 197 185 183 192 198 202 199 191 184 183 186 185 178 172 169 167 166 166 167 168 168 168 168 169 169 169 167 167 169 172 174 174 175 176 177 178 180 182 184 186 187 189 191 194
306 307 306 304 301 299 297 295 293 292 290 289 287 286 284 282 279 275 277 285 291 295 293 292 291 291 288 283 282 283 283 276 256 237 230 229 236 275 238 191 185 178 160 127 116 139 170 185 183 177 172 169 168 168 168 167 165 165 165 166 168 169 169 169 170 170 169 167 166 167 170 172 173 174 174 176 178 180 181 183 184 186 186 188 190 192
311 308 306 303 301 299 298 296 294 293 292 291 289 287 286 283 284 290 299 307 310 308 297 291 287 284 283 281 283 284 281 273 259 241 224 220 227 256 191 174 175 173 158 126 92 73 67 166 180 178 173 166 161 160 162 165 165 164 166 167 169 170 170 170 170 169 167 165 166 168 171 172 173 173 175 177 179 181 182 183 184 184 185 187 189 191
312 310 308 305 304 303 300 298 296 296 296 295 294 293 293 294 297 301 303 304 302 297 289 285 284 284 287 289 289 286 279 271 257 236 213 205 209 207 171 172 179 176 161 141 105 30 8 180 183 183 180 169 161 158 160 164 165 165 166 168 169 170 169 169 168 167 165 165 167 170 171 172 172 174 176 178 180 181 183 183 183 183 183 185 188 190
312 311 309 307 306 305 303 300 298 297 298 297 296 296 296 297 296 296 295 293 291 287 286 286 287 288 289 291 290 286 283 287 258 225 205 203 212 217 198 187 188 187 175 162 151 153 188 198 188 187 185 176 166 161 162 164 166 166 166 166 167 168 168 166 165 164 164 166 168 170 171 172 173 175 177 180 181 182 183 183 182 181 181 184 186 190
310 309 307 306 306 306 304 302 300 298 297 296 295 294 294 295 295 294 292 290 286 283 281 281 282 283 282 280 278 278 284 300 277 226 204 208 223 225 210 197 193 193 188 181 176 169 158 152 168 179 183 179 171 166 165 167 168 168 166 164 163 164 165 164 163 163 164 167 169 171 172 173 175 177 179 181 182 183 183 183 181 180 180 183 185 188
308 307 306 305 305 305 303 302 301 299 297 295 294 295 297 299 300 298 295 291 286 280 275 276 278 280 280 277 273 274 279 287 281 249 214 210 217 220 206 196 190 190 189 187 173 119 123 135 143 157 170 172 169 166 165 166 168 168 166 163 161 161 162 163 163 164 165 168 170 172 174 176 178 180 182 183 184 184 184 183 182 181 182 184 186 187
307 306 305 305 304 303 303 303 302 300 298 297 297 300 303 304 304 301 298 293 287 280 272 270 272 275 279 278 276 276 279 282 279 261 226 210 208 208 197 191 188 184 179 170 135 91 88 120 131 137 152 158 157 155 156 158 162 165 166 163 160 159 161 163 164 165 166 168 171 173 176 179 181 183 185 185 185 185 185 185 184 184 185 186 186 186
307 306 305 305 304 304 304 304 304 303 301 300 302 305 307 306 305 303 299 295 289 283 276 270 267 267 269 272 276 278 280 281 279 265 234 216 211 208 197 194 191 185 177 165 148 124 116 131 140 139 136 141 144 145 147 150 155 159 163 162 161 160 162 164 165 166 168 170 172 175 178 181 184 185 186 187 186 186 185 186 186 186 187 188 189 188
307 306 306 306 306 306 306 306 306 305 304 305 306 308 308 308 306 303 300 296 291 285 280 274 270 267 265 265 267 271 276 279 277 266 239 221 213 209 202 197 191 186 180 172 161 154 144 140 145 147 144 138 134 138 144 147 149 152 155 158 159 160 162 165 166 167 168 170 173 177 181 183 186 187 188 187 186 186 185 186 187 188 188 189 191 192
306 306 307 307 308 307 307 307 307 307 307 308 309 310 309 308 306 304 300 296 291 287 283 280 276 272 269 267 266 269 272 275 273 263 241 222 212 208 205 198 191 187 181 175 166 157 147 141 142 146 147 144 140 144 148 144 142 141 144 151 155 157 160 163 166 167 168 170 173 177 181 185 187 187 186 185 185 185 186 187 190 191 191 191 191 194
308 308 309 309 309 309 308 308 308 308 308 309 309 309 309 307 305 302 299 295 291 289 289 288 285 281 277 274 272 272 272 273 267 253 233 217 211 209 205 195 189 188 185 177 168 160 152 146 147 150 149 137 139 149 152 148 142 138 139 147 152 156 158 161 165 167 168 169 172 175 179 183 184 184 182 179 179 180 182 186 190 193 195 195 195 194
309 309 309 310 310 310 309 308 307 307 307 307 307 307 307 306 303 300 296 293 292 292 294 295 296 294 292 289 285 281 277 268 253 235 221 215 214 211 201 185 177 178 177 171 164 160 158 155 155 155 150 135 131 141 149 151 148 142 139 141 145 152 161 165 168 170 172 173 173 174 177 180 182 181 178 176 175 175 178 182 186 189 192 195 195 194
310 309 309 310 310 309 307 306 305 305 305 306 307 307 306 304 302 299 296 295 295 296 299 302 305 310 318 326 331 334 328 280 228 217 214 213 211 205 190 170 158 154 154 153 154 155 157 155 150 147 145 140 140 144 148 151 151 147 142 138 133 145 162 169 174 178 181 182 181 180 179 180 181 180 179 179 178 178 179 180 183 185 188 189 190 189
311 310 310 310 310 309 306 304 304 304 305 306 306 306 305 303 301 300 300 300 301 303 307 313 321 332 353 13 28 38 46 54 70 107 156 175 180 176 167 155 147 142 138 137 139 142 145 142 138 138 143 142 143 145 148 151 152 152 150 148 140 144 154 164 172 179 184 188 190 189 186 185 183 182 182 183 184 185 185 186 186 188 189 191 191 189
311 310 310 310 310 308 306 305 304 305 306 306 305 303 301 300 300 302 303 304 306 308 313 319 327 335 348 16 37 48 55 60 66 78 98 120 136 143 144 143 141 139 135 129 123 122 126 131 135 138 142 144 142 136 138 146 151 154 155 147 139 137 142 157 168 174 178 184 189 191 190 189 187 187 186 187 188 190 192 193 194 195 196 197 198 198
312 310 309 309 307 306 305 305 306 307 308 307 304 301 299 299 301 302 302 303 305 310 317 325 331 333 338 355 18 37 49 58 67 76 87 102 119 130 134 136 139 140 137 127 117 111 113 119 125 132 139 143 141 136 132 140 144 146 147 145 143 138 128 154 165 169 172 177 183 187 189 190 190 190 191 191 193 194 196 198 201 203 204 206 206 207
311 310 309 308 308 308 307 307 308 308 308 307 304 302 300 300 302 303 303 302 306 312 319 325 331 334 336 346 3 20 36 51 62 70 77 88 104 118 125 128 132 135 136 127 121 117 111 107 109 119 130 136 137 136 138 140 140 140 144 149 150 150 151 162 164 165 166 171 176 181 185 188 189 190 192 193 196 199 201 204 206 208 211 212 213 214
312 310 310 310 310 310 309 309 309 310 309 308 304 301 299 301 303 304 304 305 309 315 320 323 326 328 325 338 357 12 25 40 52 60 68 77 89 102 112 116 121 125 127 124 123 122 119 112 109 114 121 125 128 132 137 140 140 138 141 145 146 148 152 159 165 167 165 167 170 175 180 184 186 186 186 189 194 199 202 205 207 209 213 215 216 217
312 312 312 312 311 310 308 309 310 310 309 308 304 301 299 302 304 304 304 308 314 321 326 334 338 334 314 330 349 8 22 32 42 50 58 66 75 84 92 99 107 112 115 116 119 120 120 120 119 117 114 113 113 120 134 141 142 138 134 132 128 127 132 145 158 167 170 168 168 170 174 179 181 179 177 180 185 191 197 201 203 205 209 213 215 216
312 312 312 311 310 309 308 309 311 311 310 307 303 300 300 303 306 307 307 312 320 329 341 4 20 13 338 343 355 12 28 37 41 46 52 60 67 74 80 86 92 98 104 108 110 112 114 117 120 122 120 113 101 105 127 137 140 139 135 130 125 122 122 131 142 154 163 166 166 166 169 171 171 170 171 174 178 183 190 195 199 202 205 209 211 213
313 312 311 310 309 309 310 311 312 312 310 307 303 300 300 304 308 311 315 321 329 340 356 25 32 22 5 12 29 46 57 57 55 55 55 60 67 73 79 84 88 93 97 100 102 102 100 100 103 109 117 124 123 116 128 133 137 140 140 136 131 127 126 131 136 141 147 153 158 161 165 166 165 165 167 168 172 180 188 194 198 200 204 207 209 211
312 310 310 309 309 309 311 313 314 313 310 306 302 299 301 303 306 312 320 330 340 354 9 21 25 26 25 37 51 62 68 69 66 64 62 64 69 75 81 86 90 92 94 95 95 93 89 83 76 71 77 118 130 129 131 132 136 141 143 142 139 136 135 138 141 144 146 149 154 158 163 167 171 172 170 166 168 179 189 197 201 203 205 207 210 212
312 311 310 310 309 310 312 314 314 313 309 304 299 298 302 303 304 306 314 326 343 3 18 32 39 46 50 56 63 69 72 72 70 66 63 65 70 76 81 88 92 93 91 91 88 82 77 72 67 62 60 80 113 127 132 133 136 138 138 142 144 143 141 145 149 154 157 159 162 166 169 173 177 179 178 172 169 174 190 202 208 208 206 208 210 212
313 313 312 312 311 312 312 313 313 311 307 301 296 295 299 304 306 307 309 322 343 8 37 56 60 63 69 71 68 68 68 68 67 64 61 64 68 73 77 85 89 88 81 73 50 36 43 57 57 55 55 56 68 100 135 142 139 132 128 138 145 146 144 146 151 156 161 165 170 174 177 180 181 183 184 178 166 155 177 204 215 215 209 207 209 211
Height
621 620 619 618 616 614 611 610 610 609 606 605 604 602 601 600 599 598 597 595 595 593 592 591 590 589 588 587 586 586 585 585 585 584 584 584 583 583 583 583 583 584 585 585 585 586 585 585 584 584 585 586 588 589 590 591 592 592 593 595 596 597 598 599 600 602 603 604 605 607 609 611 613 615 616 617 619 620 622 624 626 628 630 631 633 635
620 617 616 615 615 612 609 608 608 607 604 602 601 600 599 597 596 595 594 593 592 590 589 588 586 585 585 584 583 583 582 582 581 581 581 580 580 579 579 579 579 580 581 582 583 583 584 583 583 583 583 583 584 586 587 588 589 589 590 591 592 593 595 596 597 599 600 600 601 603 605 608 611 612 613 614 615 617 619 620 623 625 626 628 630 632
618 615 614 613 612 610 607 605 604 604 602 600 599 598 596 595 593 592 591 590 589 588 586 585 583 582 581 580 580 579 579 579 578 578 577 577 576 575 575 575 575 575 576 578 578 579 580 580 581 581 580 580 580 581 583 585 585 586 587 588 589 590 591 592 594 595 596 597 598 600 603 605 608 609 610 611 612 614 615 617 619 621 623 625 627 629
618 615 612 611 610 607 605 603 602 600 600 598 596 595 594 593 590 589 588 587 586 585 584 583 581 580 579 578 577 576 576 575 575 575 574 573 573 572 572 572 571 571 572 572 573 574 575 576 577 578 577 576 576 577 579 580 582 583 584 585 585 586 587 588 590 591 592 593 595 597 600 602 604 605 606 607 609 610 612 614 615 618 620 622 624 626
617 614 611 610 607 605 603 602 600 598 597 595 594 593 592 590 588 587 585 584 583 581 580 580 580 578 577 575 574 573 573 572 572 571 570 570 569 569 569 569 568 568 567 567 568 569 570 572 574 574 575 573 573 573 575 576 578 579 580 581 582 583 584 585 585 587 588 589 591 594 597 599 600 601 603 604 605 606 608 610 612 614 616 619 621 624
615 613 611 609 606 603 601 599 598 596 595 593 591 590 589 588 586 585 582 581 579 578 577 577 576 575 574 572 571 570 569 569 568 568 567 566 566 566 565 565 565 565 564 564 563 564 565 568 570 570 571 570 570 570 571 572 574 575 576 577 578 579 580 581 582 583 584 586 588 591 593 595 596 597 599 600 601 603 605 606 608 610 613 616 619 621
613 611 610 607 605 602 600 597 596 595 593 591 589 587 586 585 584 582 580 579 577 575 574 573 571 570 569 568 567 566 566 565 565 564 564 563 563 563 562 562 562 562 561 560 560 560 561 564 565 566 567 567 567 567 567 568 570 571 572 573 574 575 576 577 578 579 580 582 584 587 589 590 592 593 595 597 598 600 602 603 605 607 610 613 616 619
611 609 608 605 603 600 597 595 594 593 592 590 587 585 583 582 580 579 578 576 575 573 571 569 567 566 565 564 564 564 563 563 562 561 561 560 560 559 559 559 559 559 558 558 557 557 558 559 560 562 563 563 563 563 564 565 565 566 568 569 570 571 572 573 574 575 576 578 580 582 584 586 588 590 591 593 595 597 599 601 603 605 607 610 613 616
613 609 606 605 602 599 595 592 591 590 590 588 586 584 582 579 577 576 575 573 571 570 568 566 564 562 561 561 561 561 560 560 559 558 558 557 556 556 555 555 555 555 555 555 554 554 554 555 555 557 558 559 560 560 560 561 562 562 563 565 565 567 568 570 571 572 573 575 576 578 580 582 584 586 588 590 592 594 596 598 600 602 604 607 610 613
614 611 607 604 602 600 596 591 588 588 587 586 584 583 581 578 576 574 571 569 568 567 566 565 563 561 559 558 558 557 557 556 556 555 555 554 553 552 552 552 552 552 551 551 551 551 550 551 551 552 554 555 556 556 556 557 558 559 560 561 561 563 564 566 567 568 570 571 573 574 576 578 580 582 585 587 589 590 592 595 596 599 601 605 608 610
613 611 608 604 601 599 596 592 589 587 586 585 582 580 579 577 575 573 570 567 565 565 564 563 562 560 558 557 555 555 555 554 553 553 552 551 550 550 549 549 549 548 548 548 548 548 548 548 548 548 549 550 551 552 553 553 555 556 557 557 558 559 560 562 563 564 566 567 569 571 572 574 576 579 581 583 585 588 590 592 594 596 599 602 605 608
612 610 607 603 600 597 595 592 589 587 585 583 581 578 576 575 574 572 570 567 564 562 561 560 559 558 557 555 554 553 553 552 551 550 549 549 548 548 547 546 545 545 545 545 545 545 545 545 545 545 546 547 548 549 550 550 551 552 553 554 554 555 556 557 559 560 562 563 565 567 569 571 573 575 577 580 582 585 587 590 592 594 597 600 603 606
611 608 605 602 599 596 593 590 588 585 583 581 579 577 574 572 572 571 569 566 563 561 560 558 555 554 553 552 551 550 550 549 548 547 546 545 545 545 544 543 542 542 541 541 541 541 541 541 542 542 543 544 545 545 546 547 548 549 550 550 551 551 552 553 555 556 558 560 561 564 565 568 570 571 574 576 579 582 585 588 590 593 596 598 601 604
609 607 604 601 597 595 592 590 587 584 582 580 578 576 574 572 571 570 568 565 561 560 558 555 552 550 548 548 548 547 546 545 544 544 543 541 541 541 541 540 539 539 539 539 538 537 537 538 539 539 539 540 541 542 543 544 545 546 546 547 547 548 549 550 551 553 555 557 558 560 562 565 567 569 570 573 575 579 582 585 589 591 594 597 600 603
609 606 603 600 596 594 592 590 587 585 582 580 578 576 574 572 570 568 566 563 559 557 555 552 549 546 544 543 543 544 543 543 541 540 539 537 537 537 537 537 537 536 536 536 535 534 534 535 535 535 535 536 537 538 540 540 541 541 542 543 544 544 545 546 548 550 552 554 555 557 559 561 563 565 567 570 573 575 579 583 586 590 592 595 598 601
608 606 603 600 596 594 592 590 588 585 582 580 579 576 574 571 568 566 564 560 557 555 553 550 547 543 540 540 540 541 540 540 539 538 536 535 533 534 535 535 535 534 533 533 532 531 531 532 532 532 532 533 533 534 535 536 537 537 538 539 540 541 542 543 545 546 548 550 552 554 556 558 560 562 564 566 569 572 576 580 584 587 590 593 596 599
608 606 603 600 596 593 591 590 588 585 583 580 577 575 573 570 567 565 562 560 557 555 552 550 547 542 537 535 535 537 538 538 536 535 535 532 531 530 531 532 532 531 530 530 529 529 529 529 529 529 529 529 530 531 532 533 533 534 535 535 536 537 538 540 541 543 545 547 550 552 555 557 559 560 562 564 566 569 573 577 581 585 588 591 594 597
607 605 602 599 595 592 590 588 586 584 582 579 576 574 571 569 567 565 562 560 557 555 551 549 545 542 538 534 532 534 536 535 534 533 532 530 528 527 528 529 529 528 527 526 525 525 525 525 525 525 525 526 527 528 529 530 530 531 532 533 533 534 535 536 538 540 543 546 549 551 554 556 559 560 562 563 565 567 570 575 579 583 586 590 593 596
604 603 600 597 594 591 589 587 585 583 581 579 576 574 571 569 567 565 563 560 557 553 550 547 543 540 538 534 532 532 534 534 533 532 530 527 525 525 525 526 525 525 524 523 522 522 522 522 522 522 522 523 524 525 525 526 527 528 529 530 530 531 533 534 537 539 542 545 548 550 553 556 558 560 562 563 565 567 570 573 577 580 584 588 591 594
602 600 598 596 593 590 587 585 583 582 580 578 576 574 571 569 566 563 560 557 554 551 548 545 542 539 536 533 531 531 533 533 533 531 529 526 523 522 523 523 523 522 521 520 519 519 519 519 519 519 519 520 521 521 522 523 524 525 526 527 528 529 531 533 535 538 540 543 546 549 552 555 558 560 562 563 565 568 570 573 576 579 582 586 589 593
600 596 595 594 591 588 585 582 580 580 579 577 575 573 570 567 563 560 557 555 552 550 547 545 541 538 536 534 531 530 532 532 531 530 528 525 522 520 520 520 520 520 519 517 516 517 517 517 516 516 517 518 518 519 520 520 522 523 524 525 526 528 530 532 534 537 539 541 544 547 550 554 557 559 561 563 565 568 570 572 575 578 581 585 588 591
597 593 591 590 589 586 583 580 578 577 577 576 574 571 568 565 562 559 556 555 553 550 548 545 541 539 537 534 531 530 531 531 531 529 527 524 519 517 518 518 518 518 516 514 514 514 515 514 514 514 515 515 516 517 518 519 520 521 523 524 525 527 529 531 534 536 538 540 543 546 549 552 555 557 560 562 565 567 570 572 574 577 580 584 587 590
594 590 588 586 585 583 580 578 576 574 574 573 571 568 566 564 561 558 556 554 551 549 546 542 540 537 535 532 529 528 528 529 529 529 527 523 517 514 516 516 516 516 513 512 512 512 512 512 512 512 513 513 514 515 516 517 519 520 521 522 524 526 528 531 533 535 538 540 543 546 549 551 553 556 559 561 564 566 569 571 573 576 579 583 586 589
591 588 585 583 582 580 578 576 574 572 571 570 568 566 563 561 559 557 554 552 549 546 543 540 536 533 530 528 526 524 524 525 526 526 525 520 515 512 513 514 514 513 511 511 511 511 510 510 510 511 511 512 513 514 515 516 518 519 520 521 524 526 528 530 533 535 538 540 543 546 548 550 553 555 558 561 563 565 568 570 572 575 579 582 585 587
587 585 583 581 579 578 576 574 572 571 569 567 565 563 560 558 556 554 551 549 546 544 540 538 534 529 525 524 522 520 520 520 522 522 522 519 514 511 511 511 512 511 510 510 510 510 510 510 510 510 511 512 513 514 515 516 516 518 519 521 523 525 528 530 533 535 538 540 543 545 547 550 552 555 558 560 562 565 567 569 572 575 578 581 584 586
585 583 581 579 578 576 575 573 571 570 568 566 564 561 558 556 553 550 548 545 543 541 538 534 530 525 522 521 519 517 516 517 518 518 519 517 513 510 510 510 510 510 510 510 510 510 510 510 510 510 511 512 513 514 515 515 516 518 520 521 524 526 528 530 533 535 538 540 542 545 547 550 552 555 557 559 561 564 566 569 571 574 577 580 583 585
582 581 580 578 576 575 573 571 569 567 565 563 561 559 557 554 551 547 544 541 540 538 535 531 527 523 520 519 516 515 514 515 514 514 515 515 513 510 509 509 510 510 510 510 510 511 511 511 511 511 512 513 514 515 515 516 517 518 520 522 524 526 529 531 533 535 537 540 542 544 546 549 552 554 556 559 561 563 566 568 571 574 576 579 582 584
580 579 577 576 574 572 570 567 565 563 561 559 558 556 555 552 549 544 540 539 538 536 534 531 528 524 521 518 515 513 512 512 511 511 513 514 513 510 509 509 510 510 511 512 512 513 513 513 512 512 513 513 514 515 516 517 518 520 521 523 525 527 529 531 533 535 537 539 541 544 546 549 551 553 556 558 560 563 565 568 570 573 576 578 580 583
577 576 574 572 570 568 566 564 561 559 557 555 554 553 551 550 547 543 540 539 539 537 535 532 529 525 521 517 513 511 509 508 508 508 511 512 511 509 509 509 510 510 511 513 514 514 514 514 513 514 514 514 515 516 517 519 520 521 523 524 526 528 530 532 534 535 537 539 541 544 546 548 550 553 555 558 560 563 565 568 570 573 575 577 579 581
574 572 570 568 566 565 563 560 558 556 554 553 551 550 549 548 546 545 543 542 541 539 535 531 528 525 521 518 514 509 505 504 504 506 508 510 510 508 508 510 510 510 510 512 514 515 515 515 514 515 515 515 515 516 518 519 520 522 524 525 527 529 530 532 534 535 537 539 541 543 546 548 550 553 555 558 560 562 565 567 569 572 574 576 578 580
571 569 567 565 563 561 560 558 555 554 552 550 549 548 547 546 545 545 543 542 540 538 535 531 528 525 523 520 515 510 504 502 503 504 506 507 506 505 507 509 509 509 509 510 512 514 515 515 515 515 515 516 516 517 518 520 520 522 524 525 527 529 530 532 534 535 537 539 541 543 545 548 550 552 555 557 560 562 564 566 569 570 573 575 577 579
569 567 565 562 560 559 557 555 553 551 550 548 547 546 545 544 543 542 541 540 539 537 535 531 528 525 523 521 517 511 505 504 504 504 505 505 504 504 505 507 508 508 508 508 508 509 511 514 515 516 516 516 517 518 519 520 521 522 523 525 526 528 530 532 534 535 537 540 541 544 546 548 550 552 555 557 560 561 564 565 568 570 571 574 576 578
568 565 563 561 559 557 555 553 551 550 548 546 545 544 543 542 541 540 539 538 536 535 533 530 528 525 522 519 515 511 507 505 505 505 505 505 504 503 504 505 506 507 507 508 507 507 508 510 513 515 516 517 518 518 519 520 521 522 523 525 526 528 530 531 533 535 537 540 542 544 546 548 550 552 555 557 559 561 563 565 567 569 571 573 575 577
566 564 561 559 557 555 553 551 549 547 545 544 543 542 541 540 539 537 536 535 533 532 530 529 526 524 520 517 513 509 505 504 504 504 504 504 503 503 503 504 504 505 506 507 508 508 508 509 510 513 516 517 518 519 520 520 521 523 524 525 526 527 529 531 533 535 537 539 541 544 546 548 550 552 555 556 558 560 562 564 566 568 570 572 574 576
565 562 559 557 555 552 550 548 547 545 544 542 541 540 539 538 536 534 533 531 530 528 527 525 524 522 520 516 512 508 504 502 503 503 503 503 502 501 501 501 502 502 504 505 506 508 509 509 510 511 514 517 519 520 520 521 521 523 524 525 526 527 529 530 532 534 536 538 540 543 545 547 550 552 554 555 558 560 562 564 566 568 570 571 573 575
563 560 557 555 553 551 548 546 545 543 541 540 539 538 537 535 533 531 530 528 526 525 523 522 520 519 517 515 512 508 503 501 501 502 501 500 500 500 500 499 499 500 501 502 504 505 507 508 509 510 512 515 518 520 521 521 521 523 524 525 526 528 529 530 532 534 536 538 540 542 544 546 548 550 553 555 557 559 561 563 565 567 569 571 572 574
562 559 556 554 552 550 547 545 543 541 540 538 537 536 535 533 531 529 527 525 524 522 521 519 518 516 515 513 510 507 503 501 500 499 499 498 498 498 497 497 497 498 498 500 501 503 505 507 509 510 512 514 516 518 520 521 522 523 524 525 527 528 530 531 533 534 536 538 540 542 544 546 548 550 552 554 556 559 561 563 565 567 568 570 572 573
560 557 555 553 550 549 546 544 542 540 539 537 535 534 532 530 528 526 525 523 522 520 519 517 515 514 512 510 508 505 502 500 498 497 497 496 496 496 496 495 496 496 497 497 499 500 502 505 507 510 511 513 515 516 518 520 521 523 524 525 527 528 530 532 533 535 537 538 540 542 544 546 548 550 551 553 555 558 560 562 564 566 568 570 571 572
559 556 554 551 550 548 545 543 541 539 538 536 534 532 530 528 526 524 523 521 520 519 517 516 514 512 510 508 505 503 501 499 498 497 496 496 496 495 495 495 495 496 497 497 498 499 500 502 504 506 509 512 515 516 517 518 520 522 524 525 527 529 530 532 534 535 537 539 540 542 544 546 547 549 551 552 554 556 558 560 562 564 566 568 570 571
558 555 553 550 549 547 545 543 540 538 536 534 532 530 528 526 524 523 521 520 519 518 516 515 513 511 509 507 505 502 500 499 498 497 496 496 495 495 495 495 495 496 497 498 499 500 500 501 502 504 506 509 512 515 517 519 520 521 523 525 528 530 531 532 534 535 537 539 540 542 544 545 547 549 550 552 554 555 557 559 561 563 565 566 568 570
557 554 552 549 547 545 544 541 539 537 535 533 531 529 527 525 523 521 520 519 518 517 516 514 513 511 509 507 505 503 501 500 498 497 496 496 496 496 496 496 496 497 498 499 500 500 501 502 503 505 507 509 511 513 516 518 520 521 523 525 527 529 530 532 534 536 537 539 541 542 544 545 547 549 550 552 554 555 557 559 560 562 564 565 567 568
557 554 551 548 546 544 542 540 538 536 534 532 530 528 526 524 523 521 520 518 517 516 515 514 513 511 510 507 505 504 502 500 499 498 498 497 497 497 497 498 498 498 499 500 501 502 502 503 504 505 507 509 511 514 516 519 520 521 523 525 527 529 531 533 535 536 538 539 540 542 544 545 547 548 550 552 554 555 557 559 560 562 563 565 566 567
556 553 550 547 545 543 540 538 536 535 533 531 529 527 525 524 523 521 520 518 517 516 515 514 513 512 510 509 507 505 503 502 500 500 499 499 498 498 499 499 500 500 500 500 502 503 504 505 505 506 507 508 510 513 516 519 521 522 524 525 527 529 532 534 535 536 537 539 540 542 543 545 546 548 550 551 553 555 557 558 560 561 563 564 565 567
555 552 549 546 544 541 539 537 535 534 532 530 528 526 524 523 522 521 519 518 516 515 515 514 513 512 511 510 508 506 505 503 502 501 500 500 500 500 500 500 501 501 501 502 503 504 505 506 507 508 509 510 511 513 516 519 521 523 525 526 527 528 530 532 534 535 537 538 540 541 543 544 546 548 550 551 553 554 556 557 559 560 562 563 565 566
554 551 548 545 543 541 539 536 535 533 531 529 527 525 524 522 521 520 519 518 516 515 515 514 513 512 511 510 509 508 506 505 504 503 502 502 502 502 502 502 503 503 503 503 504 505 506 507 509 510 510 511 513 514 517 519 521 524 525 527 528 529 530 531 533 535 536 538 540 541 543 544 545 547 549 551 552 554 555 556 558 559 560 562 563 565
552 550 547 545 543 540 538 536 534 532 530 528 526 524 523 522 521 520 519 517 516 515 514 514 513 513 512 511 510 509 508 507 506 505 505 504 504 504 504 504 505 505 505 505 506 506 507 508 509 510 512 514 515 517 518 520 522 524 526 527 528 530 531 533 534 535 536 538 539 541 542 544 545 547 548 550 551 553 554 555 557 558 559 560 562 563
552 549 546 544 542 540 537 535 533 531 529 526 525 524 522 521 520 519 518 517 516 515 514 513 513 513 512 512 511 510 510 509 509 508 507 507 506 506 506 506 507 507 507 507 508 509 510 510 511 512 513 515 518 520 521 521 522 524 526 527 528 530 531 533 535 536 537 538 539 540 542 543 545 546 548 549 551 552 554 555 556 557 559 560 561 562
551 549 546 543 541 539 536 534 532 530 528 526 524 523 522 521 520 519 518 517 516 515 514 514 513 513 513 512 512 511 511 511 510 510 510 510 509 509 509 509 509 509 510 510 510 511 512 513 514 514 514 515 517 520 522 523 523 524 525 527 528 530 531 533 535 536 537 538 539 540 541 543 544 545 547 549 550 552 553 554 555 557 558 559 560 561
551 548 545 543 540 538 535 533 531 529 527 525 524 522 521 521 520 519 518 517 516 515 514 514 513 513 513 513 512 512 512 512 512 512 511 511 511 511 511 511 511 511 511 512 512 513 514 514 515 516 517 516 517 520 522 523 524 525 526 527 528 530 531 533 535 536 537 538 540 540 542 543 544 545 546 548 550 551 552 553 555 556 557 558 559 560
550 547 545 542 540 538 535 533 531 529 527 525 523 522 521 520 520 519 518 517 516 515 515 514 514 513 513 513 513 513 513 513 513 513 513 513 513 513 513 513 513 513 513 514 514 514 515 516 517 518 519 519 520 520 522 523 525 525 526 528 529 530 531 533 534 535 537 538 539 540 541 542 544 545 546 547 549 550 551 552 553 555 555 556 557 558
548 546 544 542 540 537 535 533 530 528 526 525 523 522 521 520 520 519 518 517 516 515 515 514 514 514 513 514 514 514 514 514 514 514 514 514 514 514 514 514 514 514 514 515 515 516 516 517 519 520 521 521 522 522 523 523 524 525 526 528 529 530 531 532 534 535 536 537 539 540 541 542 543 544 545 546 548 549 550 551 552 553 554 555 556 557